"2022-01-17 00:01:00",438167,-3.988922,-4.856991,-26.543,9.223933,-16.58703,9.240356,-0.9891739,-0.5780687,-29.70748,8.375092,0,0.004,7161,0,0,0,5.456492,6.258453,6.330465,5.046204,4.972616,5.295331,1.59582,8.93074,10.28766,4.98941,"NAN","NAN",6.066978,1.5938,-0.08617229,-0.4136504,-0.4504819,0.3539495,37.69712,37.71069,37.68356,38.8048,38.44537,38.06559,37.57731,38.75506,35.17434,0.6909592,0.6915898,0.690329,0.7432985,0.7261265,0.7081794,0.685401,0.7409117,0.5781654,1.000077,8.302525,13.10429,334,344,326.5,-16.65,5.935
"2022-01-17 00:02:00",438168,-3.956638,-4.814445,-25.97098,9.200984,-16.13875,9.230504,-1.29953,-0.5780694,-29.44028,8.371816,0,0.004,7999,0,0,0,5.397491,6.232287,6.313993,5.04627,4.982378,5.292124,1.59584,8.924067,10.28766,4.996017,"NAN","NAN",6.066973,1.57804,-0.08275879,-0.4128276,-0.4504779,0.3539482,37.69486,37.71746,37.68356,38.79575,38.44989,38.08368,37.57053,38.75959,35.17208,0.6908541,0.691905,0.690329,0.7428642,0.7263414,0.7090294,0.6850868,0.7411285,0.5780683,1.000077,8.302525,13.10429,334.4,344.4,326.7,-16.81,6.016
"2022-01-17 00:03:00",438169,-3.967376,-4.761288,-25.97099,9.194423,-16.13876,9.197708,-1.548292,-0.5780696,-29.48483,8.358699,0,0.004,7999,0,0,0,5.400897,6.212524,6.337112,5.042933,4.982501,5.2954,1.589239,8.92746,10.28438,4.98941,"NAN","NAN",6.067121,1.564041,-0.08190546,-0.4128269,-0.4504771,0.3541801,37.69712,37.71746,37.69034,38.80254,38.44763,38.07011,37.57279,38.74602,35.17434,0.6909592,0.6919051,0.690644,0.7431898,0.726234,0.7083918,0.6851916,0.740478,0.5781654,1.000102,8.302525,13.11535,334.4,344.2,326.6,-16.82,5.982
"2022-01-17 00:04:00",438170,-4.010388,-4.718782,-26.42864,9.194423,-16.36291,9.200984,-1.300237,-0.5780697,-29.66299,8.348971,0,0.004,7956,0,0,0,5.390879,6.199488,6.337021,5.04627,4.985647,5.295331,1.595838,8.92746,10.29423,4.98941,"NAN","NAN",6.060351,1.550049,-0.08190568,-0.4128279,-0.4496251,0.3541024,37.69712,37.71521,37.69034,38.79575,38.44537,38.07463,37.57279,38.75507,35.17434,0.6909592,0.6917999,0.690644,0.7428641,0.7261265,0.7086043,0.6851916,0.7409117,0.5781654,1.000077,8.302525,13.1089,333.9,344,326.4,-16.92,5.94
"2022-01-17 00:05:00",438171,-4.010414,-4.708186,-26.94349,9.197708,-16.75518,9.210831,-1.177513,-0.5780701,-29.97478,8.352147,0,0.004,7459,0,0,0,5.397558,6.19957,6.333662,5.049545,4.972488,5.298676,1.592567,8.920787,10.28438,4.996084,"NAN","NAN",6.060346,1.536936,-0.08190612,-0.4128301,-0.4453616,0.3539466,37.69034,37.71069,37.69486,38.79802,38.44763,38.07238,37.57731,38.75055,35.18112,0.690644,0.6915898,0.6908541,0.7429727,0.726234,0.708498,0.685401,0.7406948,0.5784567,1.000077,8.298759,13.11443,333.4,343.7,326.1,-16.89,5.871
"2022-01-17 00:06:00",438172,-4.021166,-4.729442,-26.82908,9.197708,-16.69914,9.217392,-1.364202,-0.5780701,-30.19748,8.348872,0,0.004,7672,0,0,0,5.394218,6.209244,6.347115,5.052887,4.975822,5.2954,1.589297,8.920674,10.29094,4.98941,"NAN","NAN",6.057068,1.522066,-0.08275931,-0.4128301,-0.4436553,0.3539466,37.69486,37.71069,37.6926,38.80027,38.44763,38.07463,37.57279,38.75959,35.17434,0.6908541,0.6915898,0.6907491,0.7430813,0.726234,0.7086043,0.6851916,0.7411285,0.5781654,1.000077,8.298759,13.11351,333.5,343.8,325.9,-17.2,5.889
"2022-01-17 00:07:00",438173,-4.053478,-4.772021,-26.77194,9.197708,-16.36296,9.197708,-1.051994,-0.5780715,-30.19755,8.352155,0,0.004,7999,0,0,0,5.390879,6.265009,6.369822,5.042928,4.982378,5.298676,1.589297,8.930852,10.28766,4.982925,"NAN","NAN",6.07695,1.507221,-0.08190755,-0.4120183,-0.4445162,0.353944,37.6926,37.72199,37.69034,38.80027,38.44989,38.07238,37.57053,38.76184,35.17434,0.6907489,0.6921153,0.690644,0.7430815,0.7263413,0.708498,0.6850869,0.741237,0.5781654,1.000077,8.291225,13.10982,333.6,344,325.9,-17.41,5.937
"2022-01-17 00:08:00",438174,-4.064259,-4.846451,-26.88637,9.197708,-16.41901,9.197708,-1.3007,-0.5780718,-30.19757,8.342198,0,0.004,7672,0,0,0,5.453146,6.333865,6.395966,5.046204,4.985713,5.2954,1.605677,8.92746,10.28766,4.98941,"NAN","NAN",6.060422,1.494105,-0.08190784,-0.4120197,-0.4428114,0.3540978,37.6926,37.70617,37.6926,38.79802,38.45215,38.07463,37.57505,38.7528,35.16982,0.6907489,0.6913795,0.6907491,0.7429727,0.7264488,0.7086043,0.6852964,0.7408033,0.5779712,1.000077,8.283692,13.10337,333.5,344,325.8,-17.34,5.925
"2022-01-17 00:09:00",438175,-4.042765,-4.857092,-26.88638,9.197708,-16.36298,9.197708,-1.424812,-0.5780721,-30.3312,8.365262,0,0.004,7999,0,0,0,5.479475,6.337143,6.383016,5.052887,4.985774,5.298676,1.599113,8.917282,10.29094,4.979591,"NAN","NAN",6.066978,1.481866,-0.08190827,-0.4112028,-0.4402541,0.3540975,37.6926,37.70842,37.69034,38.8048,38.45215,38.07915,37.57731,38.7528,35.17659,0.6907489,0.6914846,0.690644,0.7432985,0.7264488,0.7088168,0.685401,0.7408032,0.5782625,1.000064,8.279926,13.10522,333.5,344,325.8,-17.39,5.937
"2022-01-17 00:10:00",438176,-3.99981,-4.846529,-27.34405,9.197708,-16.30696,9.21082,-1.237424,-0.5780727,-30.73208,8.368431,0,0.004,7898,0,0,0,5.482819,6.346992,6.376373,5.052887,4.988925,5.295331,1.586029,8.930852,10.28438,4.976318,"NAN","NAN",6.066902,1.46876,-0.08190914,-0.4087497,-0.4402588,0.3541734,37.69712,37.71294,37.68808,38.79349,38.45215,38.07238,37.57957,38.75055,35.1766,0.6909592,0.6916948,0.6905389,0.7427557,0.7264488,0.708498,0.6855057,0.7406948,0.5782625,1.000089,8.279926,13.10522,333,344.1,325.4,-17.86,5.962
"2022-01-17 00:11:00",438177,-3.935297,-4.814644,-27.9733,9.217392,-16.69922,9.250183,-1.36188,-0.5780727,-30.8657,8.375092,0,0.004,7407,0,0,0,5.469584,6.356842,6.386381,5.049545,4.982368,5.298676,1.5893,8.920674,10.28438,4.973045,"NAN","NAN",6.0637,1.455638,-0.08190914,-0.4079306,-0.4402588,0.3540184,37.6926,37.70842,37.68582,38.79802,38.44537,38.07463,37.57053,38.75732,35.1766,0.6907491,0.6914846,0.690434,0.7429727,0.7261265,0.7086043,0.6850868,0.7410201,0.5782625,1.000064,8.279926,13.1089,332.5,343.9,325.3,-17.74,5.923
"2022-01-17 00:12:00",438178,-3.870824,-4.76155,-27.28686,9.214096,-16.41904,9.240356,-0.8039348,-0.5780729,-30.9548,8.375092,0,0.004,7999,0,0,0,5.430443,6.347074,6.379738,5.049612,4.992386,5.298676,1.569687,8.930852,10.28766,4.973106,"NAN","NAN",6.073601,1.440786,-0.08191019,-0.4046592,-0.4402644,0.3540953,37.69486,37.71746,37.69034,38.79802,38.44763,38.07916,37.57505,38.76411,35.16982,0.6908541,0.6919051,0.690644,0.7429727,0.726234,0.7088168,0.6852963,0.7413454,0.5779712,1.000077,8.279926,13.11075,333.2,344.2,325.2,-18.04,5.969
"2022-01-17 00:13:00",438179,-3.870844,-4.750946,-27.11524,9.197708,-16.30696,9.23379,-1.426651,-0.578073,-30.55395,8.352147,0,0.004,7066,0,0,0,5.404172,6.337143,6.376373,5.049545,4.99232,5.2954,1.589317,8.934245,10.28766,4.979591,"NAN","NAN",6.073753,1.429417,-0.0819104,-0.403841,-0.4394123,0.3541726,37.6926,37.71294,37.6926,38.79802,38.44989,38.07463,37.57053,38.75506,35.17434,0.6907491,0.6916948,0.6907491,0.7429727,0.7263413,0.7086043,0.6850868,0.7409117,0.5781655,1.000077,8.279926,13.10614,333.3,344.2,325.5,-17.85,5.985
"2022-01-17 00:14:00",438180,-3.870834,-4.761563,-26.77201,9.197708,-16.19489,9.204259,-1.239525,-0.578073,-30.10855,8.352046,0,0.004,7999,0,0,0,5.397558,6.307635,6.376373,5.052887,5.002205,5.2954,1.569687,8.924067,10.28438,4.969772,"NAN","NAN",6.070251,1.415413,-0.08191001,-0.40302,-0.4402634,0.3540176,37.6926,37.70617,37.6813,38.79802,38.44989,38.07011,37.57279,38.75732,35.17208,0.6907489,0.6913795,0.690224,0.7429729,0.7263413,0.7083918,0.6851916,0.74102,0.5780683,1.000077,8.279926,13.12457,333.6,344.2,326,-17.35,5.977
"2022-01-17 00:15:00",438181,-3.881539,-4.718992,-26.48598,9.197708,-16.13885,9.197708,-1.363101,-0.5780729,-30.06401,8.365047,0,0.004,7999,0,0,0,5.400764,6.301165,6.379738,5.046204,4.985651,5.298676,1.576233,8.924067,10.28766,4.979713,"NAN","NAN",6.066978,1.401403,-0.08190921,-0.4030161,-0.4394059,0.3542504,37.6926,37.71069,37.68808,38.79802,38.44989,38.07916,37.57731,38.75507,35.17434,0.6907489,0.6915898,0.6905389,0.7429729,0.7263413,0.7088168,0.685401,0.7409117,0.5781654,1.000064,8.279926,13.11444,333.9,344.2,326.1,-17.32,5.982
"2022-01-17 00:16:00",438182,-3.903044,-4.718992,-26.82922,9.187851,-16.47507,9.197708,-1.114187,-0.5780729,-30.06401,8.35553,0,0.004,7511,0,0,0,5.400897,6.294523,6.379738,5.049545,4.98892,5.298676,1.592593,8.92746,10.28438,4.976382,"NAN","NAN",6.0637,1.387406,-0.08190921,-0.4030161,-0.4376995,0.3541729,37.69486,37.70617,37.6813,38.79123,38.44537,38.07915,37.57279,38.74602,35.17434,0.6908541,0.6913795,0.690224,0.7426472,0.7261265,0.7088168,0.6851916,0.740478,0.5781654,1.000077,8.279926,13.10799,333.5,343.9,326,-17.05,5.914
"2022-01-17 00:17:00",438183,-3.913834,-4.740294,-27.17249,9.204269,-16.92341,9.223943,-0.9888153,-0.5780739,-30.15314,8.378482,0,0.004,7618,0,0,0,5.394218,6.278206,6.356702,5.046204,4.992142,5.298676,1.566371,8.924179,10.28438,4.973106,"NAN","NAN",6.066973,1.373427,-0.08191019,-0.4030209,-0.4351451,0.3540159,37.69486,37.70842,37.68356,38.80027,38.45215,38.07238,37.57505,38.75732,35.17886,0.6908541,0.6914846,0.690329,0.7430813,0.7264488,0.708498,0.6852962,0.74102,0.5783597,1.000064,8.279926,13.11259,333.2,343.6,326.1,-16.7,5.85
"2022-01-17 00:18:00",438184,-3.870843,-4.697803,-27.05809,9.217381,-16.7553,9.240356,-1.113093,-0.5780742,-30.42039,8.371816,0,0.004,7999,0,0,0,5.397558,6.271563,6.343582,5.049545,4.982374,5.298676,1.582754,8.927342,10.28438,4.969772,"NAN","NAN",6.067055,1.359433,-0.08191039,-0.4030219,-0.4342929,0.3542477,37.69486,37.70842,37.69034,38.80027,38.45215,38.07011,37.57731,38.75506,35.17208,0.6908541,0.6914846,0.690644,0.7430815,0.7264488,0.7083918,0.685401,0.7409117,0.5780683,1.000064,8.279926,13.11628,333.4,343.8,325.8,-17.25,5.901
"2022-01-17 00:19:00",438185,-3.849339,-4.697803,-27.80179,9.230515,-16.86739,9.256749,-0.9894816,-0.5780748,-30.9549,8.378375,0,0.004,7618,0,0,0,5.391014,6.268443,6.330465,5.052887,4.982307,5.298676,1.579481,8.924062,10.28438,4.97644,"NAN","NAN",6.063776,1.343687,-0.0819104,-0.4030219,-0.4325865,0.3542469,37.69486,37.71294,37.68356,38.79802,38.44989,38.07011,37.57279,38.75507,35.17208,0.6908541,0.6916948,0.690329,0.7429727,0.7263413,0.7083918,0.6851916,0.7409117,0.5780683,1.000064,8.276161,13.10338,332.7,343.8,325.3,-17.71,5.895
"2022-01-17 00:20:00",438186,-3.817083,-4.665919,-27.80186,9.256755,-17.03555,9.276413,-1.177864,-0.5780762,-30.99951,8.378375,0,0.004,7783,0,0,0,5.351809,6.258453,6.333916,5.052887,4.992264,5.298676,1.57619,8.92746,10.29094,4.969772,"NAN","NAN",6.073672,1.332315,-0.08191042,-0.403022,-0.4300269,0.3543983,37.7039,37.71746,37.69034,38.79349,38.44989,38.07463,37.57505,38.75959,35.17208,0.6912744,0.6919051,0.690644,0.7427557,0.7263413,0.7086043,0.6852962,0.7411287,0.5780684,1.000077,8.268631,13.09693,332.9,343.7,325.2,-17.68,5.882
"2022-01-17 00:21:00",438187,-3.806331,-4.665919,-27.34422,9.237076,-16.86743,9.276413,-1.302322,-0.5780762,-30.99951,8.401352,0,0.004,7999,0,0,0,5.322281,6.258453,6.337107,5.052887,4.995659,5.2954,1.582776,8.924179,10.29094,4.969772,"NAN","NAN",6.070399,1.320068,-0.08191042,-0.4022028,-0.4300269,0.3543983,37.6926,37.71069,37.68808,38.79349,38.44989,38.07463,37.57731,38.7528,35.17208,0.6907491,0.6915898,0.6905389,0.7427557,0.7263413,0.7086043,0.685401,0.7408032,0.5780684,1.000064,8.272396,13.10154,333.2,343.9,325.3,-17.72,5.916
"2022-01-17 00:22:00",438188,-3.81708,-4.70843,-27.1727,9.21082,-16.69938,9.243632,-1.114507,-0.5780783,-30.99962,8.391507,0,0.004,7999,0,0,0,5.338854,6.265167,6.314074,5.052887,5.002205,5.298676,1.589348,8.934245,10.28766,4.973106,"NAN","NAN",6.070475,1.30607,-0.08191035,-0.4030217,-0.4300265,0.3543945,37.6926,37.71521,37.68582,38.80706,38.45215,38.07463,37.57505,38.7528,35.16755,0.6907491,0.6917999,0.690434,0.7434071,0.7264488,0.7086043,0.6852962,0.7408034,0.5778742,1.000089,8.261101,13.10062,333.3,343.9,325.3,-17.74,5.916
"2022-01-17 00:23:00",438189,-3.838583,-4.729685,-27.34433,9.200984,-16.4192,9.223953,-1.114281,-0.5780787,-31.13326,8.38812,0,0.004,7618,0,0,0,5.345329,6.251892,6.330551,5.052887,5.005478,5.2954,1.58932,8.934245,10.29094,4.969772,"NAN","NAN",6.077103,1.291198,-0.08191033,-0.4030216,-0.4300264,0.3543926,37.69486,37.71295,37.68808,38.79575,38.44989,38.07463,37.57505,38.76411,35.17434,0.6908541,0.6916949,0.6905389,0.7428641,0.7263414,0.7086043,0.6852962,0.7413453,0.5781654,1.000077,8.257336,13.11167,333,344.1,325.1,-18.07,5.952
"2022-01-17 00:24:00",438190,-3.870849,-4.719067,-27.57311,9.197708,-16.36314,9.197708,-1.300611,-0.5780777,-31.31137,8.381871,0,0.004,7209,0,0,0,5.364975,6.229009,6.327354,5.052887,4.995659,5.298676,1.57294,8.927571,10.28766,4.969772,"NAN","NAN",6.073677,1.278082,-0.08191069,-0.4022042,-0.4300283,0.3543937,37.69486,37.71069,37.69034,38.79802,38.44989,38.07463,37.57505,38.75732,35.17886,0.6908541,0.6915898,0.690644,0.7429729,0.7263413,0.7086043,0.6852962,0.74102,0.5783597,1.000077,8.257336,13.11812,332.8,344,324.9,-18.25,5.937
"2022-01-17 00:25:00",438191,-3.870892,-4.70849,-27.17259,9.184575,-16.36308,9.197708,-1.17543,-0.5780759,-31.13311,8.378375,0,0.004,7407,0,0,0,5.33224,6.209244,6.337021,5.052887,4.998866,5.2954,1.582776,8.930852,10.28438,4.969772,"NAN","NAN",6.063629,1.261472,-0.08191141,-0.4022078,-0.4300322,0.3543988,37.69486,37.71295,37.68356,38.79802,38.44989,38.07916,37.57505,38.75959,35.17207,0.6908541,0.6916949,0.690329,0.7429727,0.7263413,0.7088168,0.6852962,0.7411286,0.5780684,1.000089,8.257336,13.11167,333.1,344,325.1,-18.1,5.937
"2022-01-17 00:26:00",438192,-3.86014,-4.655347,-26.71494,9.118973,-16.19497,9.141942,-1.1132,-0.5780759,-30.91042,8.3586,0,0.004,7999,0,0,0,5.325689,6.163406,6.343666,5.049545,5.002205,5.2954,1.582776,8.937637,10.28766,4.973106,"NAN","NAN",6.073748,1.250974,-0.08191141,-0.398112,-0.4300322,0.3543988,37.6926,37.71069,37.6926,38.80706,38.45215,38.07238,37.58183,38.76184,35.17207,0.6907489,0.6915898,0.6907489,0.7434071,0.7264488,0.708498,0.6856104,0.7412371,0.5780684,1.000064,8.257336,13.10706,333.3,343.9,325.2,-17.9,5.913
"2022-01-17 00:27:00",438193,-3.838593,-4.612782,-26.88654,9.096034,-16.13892,9.109136,-1.236936,-0.4335566,-30.91039,8.352155,0,0.004,7999,0,0,0,5.325684,6.133814,6.379662,5.052887,5.002144,5.2954,1.58932,8.930852,10.29094,4.969772,"NAN","NAN",6.073677,1.236085,-0.08191029,-0.3997448,-0.4300263,0.3543221,37.6926,37.71294,37.68808,38.80027,38.44763,38.07463,37.57505,38.74828,35.16982,0.6907489,0.6916948,0.6905389,0.7430815,0.726234,0.7086043,0.6852962,0.7405865,0.5779713,1.000089,8.257336,13.11536,333,343.8,325.2,-17.84,5.89
"2022-01-17 00:28:00",438194,-3.78481,-4.580871,-27.34418,9.053401,-16.13892,9.086177,-1.174561,-0.5780753,-31.35578,8.342303,0,0.004,7999,0,0,0,5.325684,6.169973,6.438688,5.05616,5.002205,5.298676,1.58932,8.937637,10.29094,4.973106,"NAN","NAN",6.073672,1.222085,-0.08191007,-0.3989246,-0.4300251,0.3544,37.69486,37.71294,37.68582,38.8048,38.44311,38.0769,37.57279,38.7528,35.17434,0.6908541,0.6916948,0.690434,0.7432985,0.7260191,0.7087105,0.6851916,0.7408032,0.5781654,1.000064,8.257336,13.10614,332.3,343.7,324.7,-18.2,5.867
"2022-01-17 00:29:00",438195,-3.709537,-4.548977,-27.00093,9.050125,-16.36306,9.082891,-0.7387136,-0.5780751,-30.95491,8.329173,0,0.004,7999,0,0,0,5.315666,6.179812,6.451884,5.052887,4.995598,5.2954,1.595863,8.934245,10.28438,4.969831,"NAN","NAN",6.073677,1.209834,-0.08190975,-0.3948274,-0.428317,0.3544003,37.69486,37.71294,37.68582,38.79123,38.44989,38.07238,37.57505,38.74602,35.17208,0.6908541,0.6916948,0.690434,0.7426472,0.7263413,0.708498,0.6852962,0.740478,0.5780683,1.000077,8.257336,13.11167,332.6,343.4,325,-17.58,5.818
"2022-01-17 00:30:00",438196,-3.644988,-4.591448,-26.42886,9.043574,-16.30701,9.07635,-1.049398,-0.5780746,-30.50949,8.322711,0,0.004,7672,0,0,0,5.315798,6.160049,6.425575,5.052887,5.005478,5.292124,1.579503,8.934245,10.28766,4.966555,"NAN","NAN",6.080376,1.193204,-0.08190914,-0.3948244,-0.4283138,0.3544017,37.69486,37.71069,37.68808,38.8048,38.44537,38.07238,37.57505,38.75959,35.17208,0.6908541,0.6915898,0.6905391,0.7432986,0.7261265,0.708498,0.6852962,0.7411285,0.5780684,1.000077,8.257336,13.10614,333.2,343.4,325.4,-17.08,5.822
"2022-01-17 00:31:00",438197,-3.612732,-4.58082,-26.14283,9.040298,-16.5872,9.076329,-1.111628,-0.5780746,-30.01956,8.293063,0,0.004,7999,0,0,0,5.25355,6.130615,6.379652,5.052887,5.005478,5.298676,1.57296,8.927684,10.28438,4.959946,"NAN","NAN",6.083649,1.180957,-0.08190914,-0.3931861,-0.4249009,0.3544017,37.69034,37.71068,37.6926,38.80254,38.45215,38.07011,37.57957,38.7528,35.17886,0.690644,0.6915898,0.6907489,0.74319,0.7264488,0.7083918,0.6855057,0.7408032,0.5783597,1.000077,8.257336,13.11996,333.4,343.2,325.8,-16.44,5.765
"2022-01-17 00:32:00",438198,-3.634243,-4.591456,-25.45628,9.017329,-16.53111,9.046849,-1.04894,-0.5780726,-29.35137,8.276672,0,0.004,7999,0,0,0,5.247131,6.097903,6.369817,5.05616,5.002205,5.292124,1.579506,8.934245,10.28766,4.956736,"NAN","NAN",6.073748,1.167838,-0.08190933,-0.3948252,-0.4249019,0.3544052,37.69938,37.71069,37.6926,38.79575,38.45441,38.07011,37.57957,38.75732,35.17208,0.6910642,0.6915898,0.6907491,0.7428642,0.7265562,0.7083918,0.6855057,0.74102,0.5780683,1.000077,8.253571,13.11167,334,343.1,326.3,-15.77,5.746
"2022-01-17 00:33:00",438199,-3.623494,-4.506433,-25.8567,9.037013,-17.20355,9.053401,-1.29777,-0.5780722,-29.08411,8.247258,0,0.004,7999,0,0,0,5.230698,6.042142,6.373095,5.052887,4.998871,5.292124,1.602407,8.930964,10.28438,4.960078,"NAN","NAN",6.080299,1.152967,-0.08190937,-0.3931872,-0.4214892,0.3543294,37.69938,37.71973,37.68808,38.79575,38.45215,38.0769,37.57505,38.75733,35.16755,0.6910642,0.6920103,0.6905389,0.7428642,0.7264488,0.7087105,0.6852962,0.7410201,0.5778742,1.000077,8.23851,13.11075,333.7,342.4,326.5,-15.09,5.616
"2022-01-17 00:34:00",438200,-3.515973,-4.463922,-25.22744,9.040298,-16.92336,9.069778,-1.297618,-0.5780722,-28.95049,8.240692,0,0.004,7783,0,0,0,5.161957,5.992879,6.422376,5.052887,5.005478,5.292124,1.586047,8.934357,10.28438,4.953402,"NAN","NAN",6.077026,1.139846,-0.08190943,-0.3948257,-0.423196,0.354407,37.69712,37.71973,37.68808,38.8048,38.44763,38.07238,37.57505,38.76184,35.17886,0.6909592,0.6920103,0.6905389,0.7432985,0.726234,0.708498,0.6852964,0.7412369,0.5783597,1.000089,8.234745,13.11351,334.3,342.8,326.6,-15.29,5.69
"2022-01-17 00:35:00",438201,-3.386953,-4.400159,-25.51346,9.007472,-16.81128,9.037013,-1.235079,-0.5780721,-29.5295,8.224193,0,0.004,7999,0,0,0,5.148956,5.999364,6.497709,5.05616,5.005478,5.298676,1.579506,8.937637,10.28438,4.950259,"NAN","NAN",6.077026,1.127601,-0.08190954,-0.393188,-0.4214901,0.3544073,37.69486,37.71521,37.68582,38.81158,38.45441,38.07238,37.57957,38.76184,35.16982,0.6908541,0.6917999,0.690434,0.7436243,0.7265562,0.708498,0.6855056,0.741237,0.5779713,1.000077,8.234745,13.09969,333.9,342.7,325.9,-15.83,5.679
"2022-01-17 00:36:00",438202,-3.419209,-4.378902,-26.19992,8.971614,-16.97939,9.027263,-1.421773,-0.5780721,-29.84127,8.220914,0,0.004,7999,0,0,0,5.129232,6.074778,6.497795,5.052887,5.002144,5.2954,1.57623,8.927684,10.28438,4.937113,"NAN","NAN",6.077103,1.113604,-0.08190954,-0.393188,-0.4214901,0.3544073,37.69486,37.71069,37.6926,38.79802,38.44763,38.07689,37.57957,38.75959,35.1766,0.6908541,0.6915898,0.6907492,0.7429727,0.726234,0.7087106,0.6855056,0.7411286,0.5782625,1.000077,8.234745,13.10246,333,342.5,325.6,-15.99,5.635
"2022-01-17 00:37:00",438203,-3.408465,-4.442683,-25.57065,8.968104,-17.03542,9.02387,-1.29702,-0.5780718,-29.12863,8.217636,0,0.004,7999,0,0,0,5.099757,6.146922,6.468285,5.052887,5.002205,5.298676,1.57623,8.92746,10.28438,4.930511,"NAN","NAN",6.070478,1.10136,-0.08190978,-0.3931891,-0.4206381,0.3544079,37.6926,37.70617,37.67904,38.8048,38.44763,38.06785,37.57053,38.7528,35.17208,0.6907489,0.6913795,0.690119,0.7432986,0.726234,0.7082856,0.6850868,0.7408032,0.5780683,1.000064,8.234745,13.09785,333.6,342.4,326.3,-15.15,5.62
"2022-01-17 00:38:00",438204,-3.451478,-4.485202,-25.17021,8.961548,-16.97938,9.007472,-0.9235764,-0.5780717,-28.81685,8.21774,0,0.004,7898,0,0,0,5.112859,6.199407,6.419106,5.052887,5.002144,5.2954,1.57296,8.927571,10.28438,4.924019,"NAN","NAN",6.067055,1.089114,-0.08190983,-0.3940085,-0.4197851,0.3543306,37.69712,37.71295,37.69034,38.8048,38.45441,38.07011,37.57053,38.75507,35.17434,0.6909592,0.6916949,0.690644,0.7432985,0.7265563,0.7083918,0.6850869,0.7409117,0.5781654,1.000102,8.224579,13.09325,334,342.4,326.6,-14.81,5.614
"2022-01-17 00:39:00",438205,-3.440712,-4.517068,-25.28462,8.964943,-16.8673,8.981572,-1.047948,-0.5780715,-28.995,8.20123,0,0.004,7999,0,0,0,5.129166,6.23229,6.4814,5.052887,5.002205,5.298676,1.582779,8.927684,10.28438,4.917473,"NAN","NAN",6.063624,1.078607,-0.08190916,-0.3940053,-0.4197817,0.3544083,37.6926,37.70842,37.68356,38.79575,38.44763,38.07916,37.57053,38.77089,35.1766,0.6907489,0.6914846,0.690329,0.7428641,0.726234,0.7088168,0.6850868,0.7416711,0.5782625,1.000089,8.214413,13.11351,333.9,342.4,326.3,-15.01,5.61
"2022-01-17 00:40:00",438206,-3.408385,-4.485092,-25.45622,8.958496,-16.92333,8.964943,-1.421148,-0.5780713,-29.03952,8.188106,0,0.004,7999,0,0,0,5.148951,6.287961,6.533793,5.052818,4.995476,5.298676,1.5631,8.914337,10.28438,4.914134,"NAN","NAN",6.06705,1.066343,-0.08190781,-0.3931797,-0.4197748,0.3544091,37.69486,37.71294,37.68356,38.80254,38.44989,38.07916,37.57505,38.76637,35.17434,0.6908541,0.6916948,0.690329,0.7431898,0.7263414,0.7088168,0.6852962,0.7414539,0.5781655,1.000077,8.214413,13.12273,333.7,342.3,326.2,-14.98,5.582
"2022-01-17 00:41:00",438207,-3.386881,-4.506348,-24.88417,8.925588,-16.41899,8.958618,-1.296687,-0.5780713,-28.95045,8.168424,0,0.004,7999,0,0,0,5.155492,6.320839,6.504265,5.052887,5.002144,5.298676,1.57294,8.910942,10.28438,4.914197,"NAN","NAN",6.0637,1.054971,-0.08190781,-0.3931797,-0.4197748,0.3544866,37.6926,37.70842,37.68808,38.79802,38.45441,38.07463,37.57731,38.75959,35.17208,0.6907489,0.6914846,0.6905391,0.7429727,0.7265562,0.7086043,0.685401,0.7411285,0.5780683,1.000089,8.214413,13.10522,334.1,342.7,326.2,-15.42,5.678
"2022-01-17 00:42:00",438208,-3.397619,-4.474445,-24.88415,8.886223,-16.53105,8.895953,-1.234245,-0.5780708,-28.95042,8.13562,0,0.004,7999,0,0,0,5.142336,6.327395,6.491239,5.052887,4.998815,5.2954,1.576256,8.934357,10.28438,4.914134,"NAN","NAN",6.080376,1.042719,-0.08276059,-0.3931777,-0.4197726,0.3543323,37.69486,37.71521,37.69486,38.80932,38.44763,38.07689,37.58183,38.7528,35.16982,0.6908541,0.6917999,0.6908541,0.7435157,0.726234,0.7087106,0.6856104,0.7408032,0.5779713,1.000077,8.214413,13.09509,333.9,342.3,326,-15.2,5.59
"2022-01-17 00:43:00",438209,-3.408364,-4.410667,-24.65533,8.863271,-16.64313,8.87955,-1.234207,-0.5780708,-28.86134,8.115939,0,0.004,7307,0,0,0,5.132439,6.301074,6.560028,5.052887,5.002085,5.298676,1.576233,8.911057,10.28438,4.910858,"NAN","NAN",6.073672,1.031346,-0.0819073,-0.3931773,-0.4197722,0.3544878,37.69486,37.70842,37.68808,38.80027,38.45215,38.07238,37.57505,38.75506,35.17886,0.6908541,0.6914846,0.6905389,0.7430813,0.7264488,0.708498,0.6852962,0.7409117,0.5783597,1.000051,8.214413,13.11075,334,342.1,326,-15.09,5.55
"2022-01-17 00:44:00",438210,-3.408361,-4.389407,-24.4265,8.807515,-16.47501,8.836919,-1.171918,-0.5780706,-28.46048,8.106105,0,0.004,7999,0,0,0,5.122614,6.333865,6.537069,5.049545,5.002205,5.305359,1.582799,8.934245,10.28438,4.901054,"NAN","NAN",6.070251,1.019972,-0.08276036,-0.3931766,-0.4197715,0.354488,37.69486,37.72199,37.6813,38.80027,38.44311,38.07238,37.57505,38.75506,35.17207,0.6908541,0.6921155,0.690224,0.7430813,0.7260191,0.708498,0.6852962,0.7409117,0.5780684,1.000128,8.214413,13.1172,334,342.1,326.4,-14.71,5.54
"2022-01-17 00:45:00",438211,-3.419098,-4.346877,-24.48369,8.797562,-16.36292,8.833755,-1.234029,-0.5298977,-28.19323,8.099544,0,0.004,7999,0,0,0,5.129369,6.356827,6.514185,5.052887,5.002139,5.298676,1.569687,8.924291,10.28438,4.901192,"NAN","NAN",6.070251,1.005098,-0.08361328,-0.3931752,-0.41977,0.3543337,37.69712,37.71069,37.6926,38.80027,38.44989,38.07463,37.57957,38.7528,35.17434,0.6909592,0.6915898,0.6907489,0.7430814,0.7263413,0.7086043,0.6855057,0.7408032,0.5781655,1.000128,8.214413,13.10338,333.8,342.2,326.6,-14.62,5.56